Chadron, NE

9:24 PM MDT on May 24, 2018 (GMT -0600)
Chadron Municipal

Weather History for KCDR - October, 2013

Change the Weather History Date:

Tuesday, October 29, 2013

  Actual Average Record
Temperature  
Mean Temperature 30 °F 42 °F  
Max Temperature 32 °F 58 °F 88 °F (1968)
Min Temperature 28 °F 27 °F -7 °F (1991)
Degree Days  
Heating Degree Days 35 23  
Month to date heating degree days 552 496  
Since 1 July heating degree days 642 707  
Cooling Degree Days 0 0  
Month to date cooling degree days 0 0  
Year to date cooling degree days 917 710  
Moisture  
Dew Point 29 °F    
Average Humidity 96    
Maximum Humidity 100    
Minimum Humidity 92    
Precipitation  
Precipitation 0.00 in 0.03 in 1.01 in (1948)
Month to date precipitation 1.86 1.25  
Year to date precipitation 16.91 16.85  
Sea Level Pressure  
Sea Level Pressure 30.14 in    
Wind  
Wind Speed 6 mph (NE)    
Max Wind Speed 13 mph    
Max Gust Speed 16 mph    
Visibility 6 miles    
Events Rain    
T = Trace of Precipitation, MM = Missing Value Source: NWS Daily Summary

Daily Weather History Graph

Daily Weather History Graph

Search for Another Location

Airport or City:

Astronomy

Oct. 29, 2013 Rise Set
Actual Time 7:23 AM MDT 5:48 PM MDT
Civil Twilight 6:53 AM MDT 6:17 PM MDT
Nautical Twilight 6:20 AM MDT 6:50 PM MDT
Astronomical Twilight 5:47 AM MDT 7:23 PM MDT
Moon 2:08 AM MDT (10/29) 3:09 PM MDT (10/29)
Length of Visible Light 11h 23m
Length of Day
10h 25m
Waning Crescent, 24% of the Moon is Illuminated
Oct 29
Waning Crescent
Nov 3
New
Nov 9
First Quarter
Nov 17
Full
Nov 25
Last Quarter

Hourly Weather History & Observations

Time (MDT) Temp. Windchill Dew Point Humidity Pressure Visibility Wind Dir Wind Speed Gust Speed Precip Events Conditions
12:53 AM 28.9 °F 18.6 °F 28.0 °F 96% 30.27 in 4.0 mi NNE 12.7 mph - 0.00 in Rain Light Freezing Rain
1:02 AM 28.4 °F 19.1 °F 28.4 °F 100% 30.15 in 4.0 mi NE 10.4 mph - 0.00 in   Overcast
1:53 AM 28.9 °F 19.8 °F 28.0 °F 96% 30.27 in 3.0 mi NE 10.4 mph - 0.00 in   Overcast
2:18 AM 28.4 °F 19.1 °F 28.4 °F 100% 30.14 in 3.0 mi NNE 10.4 mph - N/A   Overcast
2:53 AM 28.9 °F 19.2 °F 28.0 °F 96% 30.25 in 3.0 mi NNE 11.5 mph - N/A   Overcast
3:53 AM 28.9 °F 20.4 °F 28.0 °F 96% 30.24 in 4.0 mi NE 9.2 mph - N/A   Overcast
4:53 AM 28.9 °F 19.8 °F 28.9 °F 100% 30.24 in 4.0 mi NE 10.4 mph - N/A   Overcast
5:53 AM 28.9 °F 20.4 °F 28.0 °F 96% 30.24 in 4.0 mi NE 9.2 mph - N/A   Overcast
6:45 AM 28.4 °F 18.0 °F 28.4 °F 100% 30.10 in 3.0 mi NE 12.7 mph - N/A   Overcast
6:53 AM 28.9 °F 19.2 °F 28.0 °F 96% 30.22 in 3.0 mi NE 11.5 mph - N/A   Overcast
7:14 AM 28.4 °F 19.7 °F 28.4 °F 100% 30.10 in 2.5 mi NE 9.2 mph - N/A   Overcast
7:32 AM 28.4 °F 20.4 °F 28.4 °F 100% 30.11 in 3.0 mi NE 8.1 mph - N/A   Overcast
7:43 AM 28.4 °F 20.4 °F 28.4 °F 100% 30.11 in 2.0 mi NE 8.1 mph - N/A   Overcast
7:53 AM 28.9 °F 20.4 °F 28.0 °F 96% 30.22 in 1.8 mi NE 9.2 mph - N/A   Overcast
8:03 AM 28.4 °F 20.4 °F 28.4 °F 100% 30.11 in 2.0 mi NNE 8.1 mph - N/A   Overcast
8:21 AM 28.4 °F 21.2 °F 28.4 °F 100% 30.11 in 1.8 mi NNE 6.9 mph - N/A   Overcast
8:53 AM 28.9 °F 20.4 °F 28.0 °F 96% 30.23 in 1.8 mi NE 9.2 mph - N/A   Overcast
9:05 AM 28.4 °F 20.4 °F 28.4 °F 100% 30.11 in 2.0 mi NE 8.1 mph - N/A   Overcast
9:53 AM 28.9 °F 20.4 °F 28.0 °F 96% 30.22 in 2.5 mi NE 9.2 mph - N/A   Overcast
10:00 AM 28.4 °F 21.2 °F 28.4 °F 100% 30.09 in 3.0 mi NE 6.9 mph - N/A   Overcast
10:39 AM 28.4 °F 21.2 °F 28.4 °F 100% 30.08 in 8.0 mi ENE 6.9 mph - N/A   Overcast
10:53 AM 28.9 °F 21.9 °F 28.0 °F 96% 30.20 in 8.0 mi NE 6.9 mph - N/A   Overcast
11:53 AM 30.0 °F 24.1 °F 28.9 °F 96% 30.19 in 7.0 mi NE 5.8 mph - N/A   Overcast
12:53 PM 30.0 °F 23.2 °F 28.9 °F 96% 30.16 in 8.0 mi NE 6.9 mph - N/A   Overcast
1:53 PM 30.0 °F 25.2 °F 28.9 °F 96% 30.14 in 7.0 mi NNE 4.6 mph - N/A   Overcast
2:53 PM 30.9 °F 26.2 °F 28.9 °F 92% 30.14 in 3.0 mi NNE 4.6 mph - N/A   Overcast
3:53 PM 30.9 °F 26.2 °F 30.0 °F 96% 30.14 in 7.0 mi ENE 4.6 mph - N/A   Overcast
4:53 PM 30.9 °F 25.2 °F 28.9 °F 92% 30.11 in 10.0 mi East 5.8 mph - N/A   Overcast
5:53 PM 30.9 °F 27.5 °F 30.0 °F 96% 30.10 in 10.0 mi East 3.5 mph - N/A   Overcast
6:53 PM 32.0 °F - 30.0 °F 92% 30.11 in 10.0 mi Calm Calm - N/A   Overcast
7:08 PM 32.0 °F 28.7 °F 30.2 °F 93% 30.00 in 10.0 mi NE 3.5 mph - N/A   Overcast
7:53 PM 30.9 °F 25.2 °F 30.0 °F 96% 30.14 in 10.0 mi NNE 5.8 mph - N/A   Overcast
8:29 PM 32.0 °F 28.7 °F 30.2 °F 93% 30.04 in 10.0 mi NNE 3.5 mph - N/A   Overcast
8:42 PM 30.2 °F - 30.2 °F 100% 30.05 in 10.0 mi Calm Calm - N/A   Overcast
8:53 PM 30.9 °F - 30.0 °F 96% 30.16 in 10.0 mi Calm Calm - N/A   Overcast
9:10 PM 30.2 °F 26.7 °F 30.2 °F 100% 30.04 in 10.0 mi NNE 3.5 mph - N/A   Overcast
9:28 PM 30.2 °F 23.4 °F 30.2 °F 100% 30.03 in 10.0 mi NE 6.9 mph - N/A   Overcast
9:53 PM 30.9 °F 25.2 °F 30.0 °F 96% 30.15 in 10.0 mi ENE 5.8 mph - N/A   Overcast
10:53 PM 30.9 °F 26.2 °F 30.0 °F 96% 30.11 in 9.0 mi ENE 4.6 mph - N/A   Overcast
11:20 PM 30.2 °F 26.7 °F 30.2 °F 100% 29.99 in 9.0 mi ENE 3.5 mph - N/A   Overcast
11:53 PM 30.9 °F - 30.0 °F 96% 30.08 in 8.0 mi Calm Calm - N/A   Overcast